GW6092 Weather Reports


time (UTC)temp
C
wind
direction
speed
KPH
gust
KPH
rain 1hr
cm
rain 24hr
cm
rain mn
cm
humidity
%
barometer
mb
20260504070228 4 29 0.0 0.0 0.00 0.00 0.00 90 1014.6
20260504060149 3 23 0.0 1.6 0.00 0.00 0.00 91 1014.9
20260504050617 3 29 0.0 0.0 0.00 0.00 0.00 89 1014.9
20260504050114 3 27 0.0 0.0 0.00 0.00 0.00 89 1014.9
20260504045611 3 27 0.0 1.6 0.00 0.00 0.00 89 1014.8
20260504045106 3 24 0.0 0.0 0.00 0.00 0.00 89 1014.8
20260504044604 3 28 0.0 0.0 0.00 0.00 0.00 89 1014.8
20260504044100 3 27 0.0 0.0 0.00 0.00 0.00 89 1014.7
20260504043558 3 25 0.0 0.0 0.00 0.00 0.00 88 1014.8
20260504043055 3 25 0.0 1.6 0.00 0.00 0.00 88 1014.7
20260504042552 3 27 0.0 0.0 0.00 0.00 0.00 88 1015.0
20260504042049 3 26 0.0 0.0 0.00 0.00 0.00 87 1015.0
20260504041544 3 26 0.0 0.0 0.00 0.00 0.00 87 1014.7
20260504041041 3 33 0.0 0.0 0.00 0.00 0.00 86 1014.8
20260504040539 4 33 0.0 0.0 0.00 0.00 0.00 85 1014.9
20260504040035 4 33 0.0 0.0 0.00 0.00 0.00 85 1014.8
20260504035532 4 33 0.0 0.0 0.00 0.00 0.00 85 1014.9
20260504035028 4 33 0.0 0.0 0.00 0.00 0.00 84 1014.7
20260504034526 4 33 0.0 0.0 0.00 0.00 0.00 83 1014.4
20260504034023 4 33 0.0 0.0 0.00 0.00 0.00 82 1014.7
20260504033521 4 33 0.0 0.0 0.00 0.00 0.00 82 1014.6
20260504033018 4 33 0.0 0.0 0.00 0.00 0.00 82 1014.3
20260504032515 4 34 0.0 0.0 0.00 0.00 0.00 81 1014.2
20260504032012 4 33 0.0 0.0 0.00 0.00 0.00 80 1014.2
20260504031509 5 33 0.0 0.0 0.00 0.00 0.00 80 1014.2
20260504031005 5 33 0.0 0.0 0.00 0.00 0.00 78 1014.2
20260504030502 5 33 0.0 0.0 0.00 0.00 0.00 77 1014.2
20260504025958 5 33 0.0 0.0 0.00 0.00 0.00 77 1014.2
20260504025455 5 33 0.0 0.0 0.00 0.00 0.00 77 1014.1
20260504024952 5 33 0.0 0.0 0.00 0.00 0.00 76 1014.1
20260504024449 5 33 0.0 0.0 0.00 0.00 0.00 75 1014.1
20260504023946 5 33 0.0 0.0 0.00 0.00 0.00 74 1014.1
20260504023443 6 33 0.0 0.0 0.00 0.00 0.00 74 1014.1
20260504022938 6 33 0.0 0.0 0.00 0.00 0.00 73 1014.0
20260504022435 6 33 0.0 0.0 0.00 0.00 0.00 72 1014.1
20260504021931 6 33 0.0 0.0 0.00 0.00 0.00 72 1014.0
20260504021429 6 33 0.0 0.0 0.00 0.00 0.00 70 1014.0
20260504020926 6 33 0.0 0.0 0.00 0.00 0.00 69 1014.2
20260504020422 6 34 0.0 0.0 0.00 0.00 0.00 69 1014.2
20260504015919 6 33 0.0 0.0 0.00 0.00 0.00 69 1013.9
20260504015415 6 33 0.0 0.0 0.00 0.00 0.00 67 1014.1
20260504014911 7 33 0.0 0.0 0.00 0.00 0.00 66 1014.0
20260504014407 7 33 0.0 0.0 0.00 0.00 0.00 65 1013.9
20260504013904 7 33 0.0 0.0 0.00 0.00 0.00 64 1014.0
20260504013403 7 34 0.0 0.0 0.00 0.00 0.00 65 1014.0
20260504012859 7 35 0.0 0.0 0.00 0.00 0.00 63 1013.9
20260504012357 8 31 0.0 0.0 0.00 0.00 0.00 61 1013.8
20260504011854 8 31 0.0 0.0 0.00 0.00 0.00 61 1013.8
20260504011350 8 29 0.0 0.0 0.00 0.00 0.00 60 1013.8
20260504010846 8 31 0.0 0.0 0.00 0.00 0.00 58 1013.6
20260504010342 8 32 0.0 0.0 0.00 0.00 0.00 57 1013.5
20260504005839 8 33 0.0 0.0 0.00 0.00 0.00 57 1013.6
20260504005336 9 34 0.0 0.0 0.00 0.00 0.00 55 1013.7
20260504004833 9 34 0.0 0.0 0.00 0.00 0.00 54 1013.6
20260504004331 9 33 0.0 0.0 0.00 0.00 0.00 54 1013.3
20260504003827 10 32 0.0 0.0 0.00 0.00 0.00 51 1013.3
20260504003324 10 32 0.0 0.0 0.00 0.00 0.00 51 1013.4
20260504002821 10 33 0.0 0.0 0.00 0.00 0.00 49 1013.4
20260504002317 11 33 0.0 0.0 0.00 0.00 0.00 47 1013.2
20260504001815 11 34 0.0 0.0 0.00 0.00 0.00 45 1013.2
20260504001312 11 33 0.0 0.0 0.00 0.00 0.00 43 1013.4
20260504000809 12 35 0.0 1.6 0.00 0.00 0.00 43 1013.2
20260504000306 12 33 0.0 0.0 0.00 0.00 0.00 42 1013.0
20260503235804 12 32 0.0 0.0 0.00 0.00 0.00 40 1013.0
20260503235301 13 32 0.0 0.0 0.00 0.00 0.00 39 1012.9
20260503234759 13 31 0.0 0.0 0.00 0.00 0.00 36 1012.8
20260503234256 14 31 0.0 0.0 0.00 0.00 0.00 38 1012.9
20260503233754 15 30 0.0 0.0 0.00 0.00 0.00 37 1012.7
20260503233249 15 29 0.0 0.0 0.00 0.00 0.00 36 1012.8
20260503232746 15 17 1.6 3.2 0.00 0.00 0.00 32 1012.7
20260503232243 15 24 1.6 1.6 0.00 0.00 0.00 32 1012.6
20260503231741 16 9 1.6 3.2 0.00 0.00 0.00 31 1012.5
20260503231238 16 83 3.2 4.8 0.00 0.00 0.00 31 1012.5
20260503230734 16 22 0.0 1.6 0.00 0.00 0.00 31 1012.5
20260503230232 16 39 1.6 1.6 0.00 0.00 0.00 30 1012.5
20260503225729 16 6 1.6 3.2 0.00 0.00 0.00 30 1012.7
20260503225229 16 24 0.0 0.0 0.00 0.00 0.00 31 1012.5
20260503224726 16 22 1.6 1.6 0.00 0.00 0.00 29 1012.6
20260503224224 16 347 0.0 1.6 0.00 0.00 0.00 29 1012.6
20260503223721 16 149 1.6 3.2 0.00 0.00 0.00 31 1012.5
20260503223219 16 358 6.4 11.3 0.00 0.00 0.00 30 1012.5
20260503222715 16 351 4.8 4.8 0.00 0.00 0.00 28 1012.7
20260503222213 17 59 3.2 4.8 0.00 0.00 0.00 27 1012.6
20260503221711 17 62 3.2 9.7 0.00 0.00 0.00 27 1012.7
20260503221209 17 1 6.4 9.7 0.00 0.00 0.00 28 1012.6
20260503220705 17 2 3.2 4.8 0.00 0.00 0.00 27 1012.7
20260503220201 17 325 6.4 6.4 0.00 0.00 0.00 27 1012.7
20260503215658 17 58 1.6 1.6 0.00 0.00 0.00 28 1012.8
20260503215155 17 357 3.2 6.4 0.00 0.00 0.00 27 1012.8
20260503214649 17 335 1.6 3.2 0.00 0.00 0.00 27 1012.6
20260503214144 17 4 11.3 12.9 0.00 0.00 0.00 27 1012.5
20260503213643 17 15 4.8 6.4 0.00 0.00 0.00 28 1012.6
20260503213139 17 311 9.7 12.9 0.00 0.00 0.00 26 1012.8
20260503212637 17 297 11.3 12.9 0.00 0.00 0.00 26 1012.5
20260503212134 17 22 1.6 3.2 0.00 0.00 0.00 28 1012.6
20260503211632 17 295 6.4 11.3 0.00 0.00 0.00 26 1012.5
20260503211127 17 32 6.4 11.3 0.00 0.00 0.00 26 1012.6
20260503210624 17 5 1.6 3.2 0.00 0.00 0.00 26 1012.6
20260503210120 17 262 3.2 3.2 0.00 0.00 0.00 28 1012.6
20260503205616 17 221 11.3 14.5 0.00 0.00 0.00 26 1012.6
20260503205112 17 357 4.8 6.4 0.00 0.00 0.00 29 1012.6
20260503204609 17 36 3.2 3.2 0.00 0.00 0.00 28 1012.7
20260503204107 17 11 6.4 9.7 0.00 0.00 0.00 27 1012.7
20260503203603 17 354 1.6 3.2 0.00 0.00 0.00 30 1013.0
20260503203101 17 353 8.0 14.5 0.00 0.00 0.00 27 1013.0
20260503202558 17 23 3.2 3.2 0.00 0.00 0.00 28 1012.9
20260503202056 18 215 6.4 11.3 0.00 0.00 0.00 28 1013.2
20260503201554 17 293 3.2 4.8 0.00 0.00 0.00 29 1013.0
20260503201051 17 23 3.2 3.2 0.00 0.00 0.00 30 1013.0
20260503200547 17 31 6.4 11.3 0.00 0.00 0.00 27 1013.0
20260503200044 17 7 9.7 12.9 0.00 0.00 0.00 27 1013.1
20260503195541 16 296 3.2 4.8 0.00 0.00 0.00 29 1013.5
20260503195038 17 20 6.4 12.9 0.00 0.00 0.00 28 1013.5
20260503194535 17 42 4.8 6.4 0.00 0.00 0.00 29 1013.5
20260503194035 16 315 4.8 6.4 0.00 0.00 0.00 33 1013.6
20260503193532 16 1 4.8 6.4 0.00 0.00 0.00 32 1013.7
20260503193027 16 26 1.6 3.2 0.00 0.00 0.00 32 1013.6
20260503192523 17 355 9.7 14.5 0.00 0.00 0.00 28 1013.9
20260503192020 17 246 6.4 9.7 0.00 0.00 0.00 28 1013.9
20260503191517 16 352 1.6 1.6 0.00 0.00 0.00 37 1013.7
20260503191013 16 340 6.4 9.7 0.00 0.00 0.00 30 1013.8
20260503190510 17 0 1.6 1.6 0.00 0.00 0.00 30 1013.9
20260503190008 17 333 4.8 4.8 0.00 0.00 0.00 29 1013.9
20260503185504 16 19 9.7 14.5 0.00 0.00 0.00 28 1013.9
20260503185003 16 316 6.4 9.7 0.00 0.00 0.00 30 1014.0
20260503184500 16 10 1.6 1.6 0.00 0.00 0.00 36 1014.3
20260503183956 17 356 3.2 3.2 0.00 0.00 0.00 31 1014.2
20260503183453 16 8 6.4 9.7 0.00 0.00 0.00 31 1014.1
20260503182950 16 298 14.5 20.9 0.00 0.00 0.00 29 1014.3
20260503182449 16 338 3.2 4.8 0.00 0.00 0.00 30 1014.3
20260503181946 15 265 6.4 6.4 0.00 0.00 0.00 32 1014.2
20260503181443 15 312 11.3 20.9 0.00 0.00 0.00 32 1014.4
20260503180939 16 26 4.8 6.4 0.00 0.00 0.00 33 1014.4
20260503180437 16 13 4.8 4.8 0.00 0.00 0.00 34 1014.7
20260503175934 16 312 3.2 3.2 0.00 0.00 0.00 33 1014.3
20260503175432 16 3 4.8 4.8 0.00 0.00 0.00 33 1014.6
20260503174927 16 6 9.7 12.9 0.00 0.00 0.00 29 1014.8
20260503174426 16 354 9.7 17.7 0.00 0.00 0.00 33 1014.7
20260503173926 16 242 8.0 11.3 0.00 0.00 0.00 32 1014.9
20260503173422 16 349 3.2 4.8 0.00 0.00 0.00 34 1014.8
20260503172919 15 5 4.8 9.7 0.00 0.00 0.00 35 1014.8
20260503172417 14 98 6.4 9.7 0.00 0.00 0.00 34 1014.8
20260503171913 15 201 6.4 11.3 0.00 0.00 0.00 34 1014.8
20260503171409 15 258 6.4 9.7 0.00 0.00 0.00 31 1014.8
20260503170907 16 331 11.3 14.5 0.00 0.00 0.00 33 1015.1
20260503170403 14 41 3.2 4.8 0.00 0.00 0.00 37 1015.0
20260503150755 12 30 0.0 1.6 0.00 0.00 0.00 36 1015.6
20260503150251 12 207 6.4 9.7 0.00 0.00 0.00 38 1015.7
20260503140216 11 337 6.4 9.7 0.00 0.00 0.00 39 1015.8
20260503131145 10 348 1.6 3.2 0.00 0.00 0.00 47 1015.9
20260503130643 10 194 6.4 9.7 0.00 0.00 0.00 49 1015.8
20260503130140 8 41 0.0 0.0 0.00 0.00 0.00 53 1016.1
20260503120106 6 27 1.6 1.6 0.00 0.00 0.00 64 1015.5
20260503110533 4 347 6.4 6.4 0.00 0.00 0.00 71 1014.9
20260503090420 2 42 0.0 1.6 0.00 0.00 0.00 86 1013.3
20260503081346 2 31 0.0 0.0 0.00 0.00 0.00 91 1013.1
20260503080843 2 27 0.0 0.0 0.00 0.00 0.00 91 1013.0
20260503080340 2 26 0.0 0.0 0.00 0.00 0.00 91 1013.0
20260503072817 2 32 0.0 0.0 0.00 0.00 0.00 91 1012.5
20260503072314 2 26 0.0 0.0 0.00 0.00 0.00 91 1012.7
20260503071809 2 30 0.0 0.0 0.00 0.00 0.00 91 1012.5
20260503071307 2 30 0.0 0.0 0.00 0.00 0.00 90 1012.6
20260503070803 2 31 0.0 0.0 0.00 0.00 0.00 90 1012.5